Theta_e
351 352 352 351 351 352 352 352 353 354 355 355 357 353 353 355 355 355 354 353 352 352 351 349 346 343 342 343 345 345 346 346 347 349 350 350 352 359 363 361 361 361 360 361 361 360 359 359 359 359 359 359 359 361 360 361 361 361 360 361 361 360 360 361 360 360 361 361 360 360 361 361 361 361 361 362 362 361 361 361 361 361 359 358 359
352 350 350 351 351 351 353 353 352 353 355 354 356 356 355 353 353 354 355 355 352 349 351 343 342 343 339 342 344 346 346 346 347 348 349 350 352 358 364 362 362 362 361 362 361 362 362 362 361 360 361 362 363 362 363 363 361 362 362 362 362 362 362 362 362 362 362 362 362 363 362 362 362 363 363 364 363 363 363 362 361 361 360 361 361
352 352 352 353 352 352 351 352 353 353 355 355 357 357 355 354 353 352 353 352 351 350 350 344 341 341 342 340 343 345 346 347 346 347 349 350 350 353 360 364 363 363 362 362 362 362 362 363 363 363 363 362 362 363 363 364 364 363 364 364 364 364 363 363 364 364 364 364 364 365 365 365 365 365 365 364 364 364 363 363 362 362 362 362 361
354 352 352 351 352 353 355 354 354 355 357 355 354 355 356 355 356 355 356 356 355 352 351 345 340 339 341 341 339 342 346 346 346 346 347 348 349 351 354 360 364 363 363 363 363 362 362 362 363 364 363 364 364 364 364 365 365 365 365 366 365 365 365 365 366 366 366 366 367 366 366 366 365 365 364 364 365 365 365 364 364 363 361 361 360
353 353 355 352 354 353 352 355 354 354 356 357 357 359 359 356 353 357 354 354 350 347 351 347 341 338 340 342 338 340 345 347 347 347 347 347 348 349 352 357 358 364 364 363 364 364 363 364 364 364 364 364 366 366 365 366 366 366 367 366 365 365 366 366 366 366 366 366 366 365 366 365 365 365 365 365 365 365 364 363 362 360 358 358 358
354 353 353 351 351 351 352 352 352 354 356 362 356 355 357 358 357 354 360 353 348 349 347 342 341 338 340 341 338 340 343 346 349 349 347 345 346 348 350 352 355 356 359 364 365 365 365 366 366 366 367 367 367 367 368 368 368 367 367 367 366 366 367 367 366 366 366 366 365 365 365 365 365 365 365 365 364 364 363 362 359 357 356 355 355
355 353 351 350 350 350 351 352 355 358 357 360 358 358 357 354 357 350 350 350 352 353 351 344 341 340 340 341 336 339 341 343 348 348 345 343 344 346 348 349 351 353 357 357 366 366 366 367 368 368 367 368 368 369 368 369 368 367 367 368 367 367 366 367 366 366 366 365 365 365 365 365 365 365 365 364 363 363 362 360 357 356 354 353 353
355 352 350 351 350 350 351 354 360 364 361 361 363 356 356 355 355 354 350 350 354 348 346 343 341 340 341 341 344 345 338 339 344 345 345 344 345 345 347 348 349 349 358 353 354 358 366 368 369 370 370 370 370 370 370 369 368 367 367 367 367 367 367 366 366 366 366 366 366 366 365 365 365 365 364 364 363 362 360 358 356 353 352 352 352
355 354 350 351 352 353 355 358 365 361 358 357 355 360 358 358 355 360 354 350 351 350 350 349 341 339 341 338 346 347 338 338 341 342 346 346 345 346 347 348 351 359 354 353 351 352 358 366 369 370 372 372 372 371 371 370 368 367 367 367 367 367 368 368 368 368 368 368 367 367 366 365 364 364 364 363 362 361 360 357 354 352 352 351 351
357 357 354 353 353 353 355 359 362 359 358 357 356 359 358 356 353 354 360 353 352 352 351 350 348 338 339 337 340 341 341 341 341 354 342 345 346 347 349 350 352 352 353 353 351 350 349 356 366 370 371 369 370 370 371 371 370 366 366 366 367 368 369 370 370 369 368 368 368 368 367 365 365 364 363 362 361 361 358 355 353 351 351 351 351
357 360 358 358 356 354 355 360 361 358 358 356 357 361 362 356 355 357 359 356 353 355 353 352 351 343 337 337 342 344 342 343 353 345 340 344 345 350 351 351 353 354 355 356 354 351 350 349 349 354 358 366 370 374 373 370 370 367 367 368 367 368 370 370 370 369 368 368 369 369 367 365 365 364 364 363 362 361 359 355 354 352 352 352 352
362 362 359 363 355 355 356 361 360 358 356 354 352 353 357 357 356 362 360 360 360 356 353 349 341 337 342 338 339 340 344 348 348 345 343 341 342 348 347 347 350 353 355 356 356 355 353 352 355 351 353 357 366 373 374 373 368 366 368 368 369 369 371 371 370 370 369 368 369 368 367 366 366 365 365 364 363 361 359 356 355 354 354 352 351
362 360 357 367 356 356 358 358 361 360 357 354 356 357 360 361 360 360 362 356 354 356 347 345 335 333 336 334 336 341 350 354 346 343 340 341 341 346 345 346 346 347 350 353 353 355 356 355 354 352 351 353 358 370 375 370 369 368 368 369 369 371 372 372 371 371 370 370 369 369 368 367 367 366 366 365 364 363 360 358 355 354 353 352 351
364 360 363 358 356 358 358 357 359 357 358 362 361 367 358 357 357 354 355 357 352 355 349 340 338 329 330 332 334 334 343 350 343 340 341 340 337 343 343 344 343 344 346 348 348 351 353 355 355 355 353 354 356 355 360 365 367 369 370 370 371 372 372 373 372 371 372 372 371 370 369 368 368 367 366 365 364 363 361 360 358 357 354 352 351
361 365 361 361 359 359 359 360 359 363 359 359 361 356 357 358 357 355 352 353 355 356 350 343 340 340 337 331 324 327 334 338 342 341 340 337 337 340 344 343 344 343 344 345 345 346 346 350 356 357 356 356 356 353 356 363 361 367 369 369 370 373 373 373 374 373 372 372 372 371 370 369 368 367 367 366 365 364 363 361 360 359 357 355 352
360 362 362 360 359 358 359 360 357 362 359 357 356 357 358 358 356 358 354 348 351 350 358 352 345 334 330 331 326 331 326 328 335 339 344 341 337 338 342 342 341 342 345 343 343 344 345 347 352 356 358 358 355 352 355 356 362 370 371 370 368 367 371 373 374 373 373 373 372 371 370 369 369 369 368 367 366 365 364 362 361 360 359 357 354
360 361 364 360 361 361 360 358 360 363 363 360 356 356 357 358 360 358 353 350 349 350 351 353 348 344 337 335 328 325 327 328 337 333 340 338 336 336 341 340 336 338 341 341 341 343 344 345 350 355 359 358 355 354 356 358 359 367 368 371 371 369 369 370 371 372 372 373 372 370 370 369 369 368 368 368 367 366 365 363 362 361 360 358 355
359 360 364 364 359 359 360 357 359 359 358 355 356 357 357 356 357 357 353 354 353 348 348 352 354 356 349 332 332 328 327 330 326 324 336 346 342 337 337 338 340 343 340 340 341 340 347 346 351 354 357 357 356 355 357 360 366 362 363 364 372 372 370 368 368 370 371 373 370 370 370 369 369 369 369 369 368 367 366 364 362 361 360 359 358
359 360 363 363 360 359 360 358 360 357 366 356 357 355 354 354 362 356 355 361 352 346 347 348 345 348 351 350 353 346 340 333 330 335 326 332 338 341 337 339 337 342 343 340 340 340 343 350 351 351 352 356 356 356 356 357 364 366 367 369 368 369 368 366 366 369 371 372 369 369 369 369 369 368 368 367 368 367 366 365 363 362 361 360 359
358 358 361 363 361 359 360 359 359 359 366 359 356 356 358 357 364 362 358 356 355 350 348 348 342 343 352 349 350 351 345 349 339 332 330 328 331 338 339 339 340 339 342 338 336 339 341 347 349 348 348 351 354 354 352 353 357 359 363 366 369 370 369 367 367 367 369 371 370 368 368 367 368 367 366 367 367 367 366 365 364 363 363 362 360
358 358 360 361 364 359 357 358 357 361 367 359 357 358 357 357 358 356 353 355 357 358 352 349 347 347 343 344 344 347 345 345 348 345 337 329 329 334 332 335 336 338 341 341 339 338 341 344 347 349 351 351 352 354 353 352 354 357 361 364 368 369 370 367 367 370 370 370 372 370 368 367 367 367 367 366 366 367 366 365 366 366 365 364 362
357 358 358 360 360 361 359 360 357 362 361 356 357 355 355 357 360 359 359 354 354 355 355 350 350 350 347 348 340 342 340 341 339 337 337 334 329 329 331 330 329 331 343 342 344 342 339 342 347 351 348 349 352 353 355 354 354 355 357 362 365 367 367 365 365 368 368 368 368 369 368 367 367 367 366 367 367 366 366 366 366 366 366 365 364
357 358 357 358 359 362 359 359 358 363 362 356 355 357 357 356 360 361 359 355 355 357 354 352 351 350 348 344 343 344 339 337 335 339 335 334 332 332 334 336 333 330 335 343 346 343 341 342 344 347 347 348 351 352 353 353 359 361 362 362 362 364 364 364 365 366 364 364 367 368 368 367 367 367 367 367 367 367 366 366 366 366 366 365 364
355 356 357 357 358 360 361 359 361 359 357 358 358 358 360 360 358 358 357 358 355 357 352 352 351 349 347 346 345 347 347 342 340 344 341 339 333 332 334 336 335 335 341 345 344 347 343 342 341 343 345 347 352 354 354 356 357 364 363 362 360 361 362 364 367 366 364 363 362 363 364 364 365 365 367 366 366 365 364 364 364 365 365 365 364
353 354 355 356 357 357 355 355 356 358 357 358 358 362 358 359 358 358 357 355 357 356 353 351 349 348 348 348 348 345 344 346 346 345 345 343 338 335 338 340 335 336 337 344 344 345 347 349 348 343 348 349 351 354 355 356 355 358 362 360 359 361 361 363 365 364 363 361 362 364 365 365 364 363 363 363 363 363 363 365 364 364 363 363 363
354 353 355 356 358 357 358 358 358 357 359 357 358 360 359 358 358 356 357 355 357 357 355 356 353 353 350 346 345 346 342 346 347 343 341 340 339 339 338 338 342 340 341 342 344 343 345 350 350 350 350 352 354 354 354 355 354 360 361 359 357 356 360 361 364 364 365 363 362 363 364 365 366 366 364 363 363 363 363 363 364 365 365 365 364
353 355 357 356 357 356 357 360 358 358 360 359 364 362 363 362 363 360 359 359 357 358 358 357 356 354 353 350 352 344 342 345 347 346 344 344 345 343 338 336 333 337 340 340 343 344 345 346 350 349 352 357 353 353 353 354 358 361 363 360 358 356 356 359 361 362 363 363 364 363 364 365 365 366 365 364 362 364 366 365 364 363 363 363 363
353 355 356 356 356 356 358 360 359 359 360 360 361 361 361 360 360 360 356 365 361 359 357 357 356 356 355 352 347 346 348 348 351 347 348 348 352 349 341 336 333 331 334 337 337 340 347 346 346 348 352 352 353 352 356 355 353 359 363 356 354 354 355 357 355 353 353 353 355 356 358 361 361 362 364 364 362 362 364 367 367 364 362 362 362
357 357 356 357 356 356 356 359 359 360 360 360 361 360 360 361 361 357 357 361 361 357 359 358 357 358 357 356 353 350 350 356 352 351 350 355 351 347 349 343 337 336 333 332 331 337 343 349 347 346 351 353 354 353 350 351 355 357 352 352 354 354 352 348 349 349 349 350 351 352 353 355 356 359 361 362 362 362 362 363 363 362 361 360 362
360 361 358 358 356 363 355 357 359 359 360 359 359 359 359 357 358 357 358 360 359 360 360 361 359 357 359 357 355 355 357 355 356 355 357 357 355 353 351 350 344 339 337 334 332 339 343 347 349 348 351 355 354 353 353 351 355 354 350 349 350 350 347 347 349 348 348 347 346 347 349 352 353 355 355 354 354 355 356 358 360 361 361 361 361
359 358 358 358 357 359 355 356 358 358 359 358 359 357 359 357 358 358 359 359 355 355 356 360 361 359 356 356 357 356 357 358 355 354 354 353 353 353 354 355 352 346 343 338 334 340 349 345 348 353 353 353 354 351 351 351 354 354 351 350 350 351 351 350 348 347 345 344 345 345 345 347 348 348 347 349 350 352 355 357 359 358 358 360 360
357 357 358 358 359 359 356 358 359 357 358 358 357 356 359 358 358 360 358 358 357 355 358 359 360 358 357 355 355 356 357 355 353 353 353 354 357 352 353 354 353 351 347 343 339 341 347 350 351 354 357 353 352 349 348 350 353 355 351 351 352 353 350 347 347 346 345 345 345 344 342 342 343 344 346 348 350 352 354 355 355 355 355 356 357
356 357 357 357 359 359 359 359 359 357 357 357 357 356 359 358 356 357 357 357 357 357 357 357 359 358 358 357 356 357 358 356 353 354 353 353 350 352 352 354 354 357 352 346 341 343 346 352 354 353 354 353 348 347 347 348 349 351 353 352 352 349 347 345 345 346 346 345 343 341 340 341 341 342 344 347 349 350 352 353 351 350 350 349 348
356 355 357 358 359 358 359 358 357 357 357 357 358 357 359 358 357 360 359 357 356 356 355 355 358 360 358 354 355 356 356 354 354 354 353 353 350 349 350 351 348 349 353 348 343 342 341 345 345 348 348 351 345 346 345 347 348 352 351 351 351 347 346 346 344 347 347 344 341 339 340 341 341 342 343 345 347 347 348 346 344 343 343 342 338
355 353 357 357 358 357 357 357 356 356 356 357 357 357 357 358 358 358 358 358 358 357 357 357 357 357 356 354 355 355 358 355 354 354 355 354 352 349 347 349 348 348 350 351 347 344 343 341 342 344 343 344 344 345 348 350 351 351 349 347 345 347 348 346 348 351 347 344 342 342 342 342 342 341 341 342 344 344 343 340 337 334 334 333 331
354 354 355 356 358 357 356 356 356 356 356 357 357 357 358 357 357 357 357 356 358 359 359 358 358 356 354 352 353 354 354 352 352 352 353 352 350 349 349 349 350 348 349 352 351 346 340 338 335 338 341 341 343 347 350 351 348 345 344 345 345 346 348 352 353 352 350 345 345 345 345 343 342 341 341 341 341 338 336 334 333 333 332 332 331
355 354 355 354 356 357 356 355 355 355 355 356 357 357 358 359 358 358 357 357 358 359 360 359 364 357 355 354 353 353 353 351 349 350 352 349 349 349 347 346 350 351 352 350 347 346 339 335 337 338 341 342 345 347 348 344 345 345 345 344 346 348 351 353 354 357 351 349 350 348 346 344 344 343 342 341 340 338 336 335 335 334 333 332 330
352 354 354 354 355 355 356 355 356 355 356 357 357 357 358 359 359 359 359 358 357 357 357 357 356 357 356 354 354 353 349 346 344 344 346 347 346 345 341 340 340 342 344 341 341 341 339 339 338 341 339 343 342 342 346 346 346 344 344 346 348 349 350 352 355 358 360 361 359 360 351 349 347 343 343 341 339 337 337 337 336 336 335 332 328
352 352 353 353 356 355 355 355 356 356 357 358 358 357 357 356 357 357 357 357 357 358 357 357 356 355 354 352 350 349 348 347 346 345 344 344 347 345 344 341 343 344 343 341 346 344 344 342 340 340 340 342 342 343 347 347 345 344 343 348 348 348 349 351 354 357 359 359 356 352 351 349 347 347 340 337 340 341 340 339 339 338 337 333 328
351 352 352 352 354 355 355 355 355 357 356 357 356 357 357 356 356 356 356 356 355 354 355 355 356 355 354 353 352 350 349 349 348 348 346 344 344 344 345 345 348 345 344 346 345 344 343 341 339 341 340 340 345 345 346 342 341 340 345 346 347 348 350 350 352 353 355 357 355 356 352 351 351 349 343 345 346 345 343 344 343 342 340 334 330
352 351 352 352 355 355 355 356 356 358 359 358 358 357 358 357 357 357 356 356 356 353 353 352 351 351 350 349 348 348 351 362 366 364 359 357 347 344 345 347 346 344 344 345 344 342 340 340 343 342 341 343 343 342 341 339 341 342 345 347 347 350 351 350 351 353 356 355 354 354 354 355 354 354 355 356 358 357 353 346 346 346 342 333 332
350 351 350 351 353 354 355 355 353 354 357 360 363 367 367 361 357 358 356 355 354 353 353 352 351 351 350 346 347 362 365 368 373 374 373 370 365 353 344 345 346 345 342 340 340 342 342 342 341 340 341 341 342 342 341 343 345 347 350 349 347 348 348 348 348 349 355 353 352 351 353 355 354 353 355 355 358 357 356 355 351 344 338 333 333
348 349 350 350 350 351 353 354 353 352 349 345 343 334 340 347 362 356 354 353 352 353 352 349 348 350 348 348 349 357 362 362 357 364 369 367 369 367 364 363 357 345 342 343 342 342 341 340 340 341 341 341 342 343 343 345 350 349 348 348 347 347 345 344 343 348 354 354 351 349 350 353 354 352 353 354 355 355 356 355 342 340 336 334 334
352 351 347 348 348 348 349 348 345 343 339 335 328 332 336 340 351 355 354 352 352 350 350 349 347 346 348 351 353 361 361 362 356 350 354 364 363 365 365 363 361 362 358 346 342 341 340 340 339 340 339 340 342 343 344 350 350 348 347 347 345 345 346 345 343 344 351 356 351 347 347 351 353 352 351 353 354 355 356 344 339 338 336 335 335
353 349 347 347 346 346 345 343 342 340 334 329 327 330 331 332 335 356 352 352 350 349 347 345 343 346 350 352 353 351 350 360 354 349 347 352 361 361 362 363 362 357 345 344 347 347 344 341 340 341 342 342 342 344 348 350 347 344 345 345 346 346 347 346 346 347 351 355 349 344 345 349 350 351 350 352 354 355 355 346 340 338 337 336 334
352 352 350 347 345 343 343 342 337 334 330 327 325 327 328 330 333 344 350 350 349 347 347 348 353 352 351 351 349 346 344 344 344 346 345 348 352 354 353 353 354 357 358 352 344 342 347 347 344 342 345 346 346 346 352 351 347 345 344 345 346 346 346 346 349 350 353 356 347 345 343 346 350 349 348 350 353 354 354 345 336 336 337 335 334
350 350 349 347 345 344 339 335 333 330 327 322 322 324 324 327 331 348 348 353 351 350 351 354 354 355 353 352 346 342 339 340 345 347 343 346 348 352 350 352 352 351 351 354 355 353 351 348 345 347 349 350 350 351 352 349 349 348 348 347 347 347 348 350 349 350 352 352 350 346 340 346 349 347 347 349 352 352 354 343 338 337 336 333 333
346 349 349 349 345 339 335 333 330 327 325 319 320 320 321 325 343 351 349 348 350 353 355 354 354 354 353 348 343 339 337 336 338 329 336 345 348 347 347 349 350 352 353 354 341 349 353 349 349 351 352 352 346 349 350 349 348 347 350 351 350 347 345 341 342 346 347 351 352 346 341 343 347 346 346 350 351 350 352 353 343 341 337 334 334
347 348 348 348 345 339 336 333 329 327 327 321 317 316 317 321 340 345 347 351 351 352 353 354 352 351 349 346 343 340 338 336 330 322 325 345 345 345 345 346 348 349 350 352 344 342 338 334 332 333 332 331 331 329 328 326 337 342 345 343 342 343 342 341 343 343 344 347 349 347 342 341 345 345 345 348 349 348 349 351 353 341 336 334 334
346 346 346 346 345 342 336 332 330 328 326 322 315 314 315 319 337 339 344 348 349 351 352 353 353 353 355 356 349 340 337 336 324 321 324 341 341 341 343 342 342 343 343 342 343 345 341 340 340 338 336 336 338 340 340 335 333 338 346 343 345 344 343 343 341 343 346 346 346 351 343 340 344 344 343 347 347 345 347 348 350 345 337 338 335
345 345 346 342 341 339 338 337 339 331 329 326 315 315 315 319 333 337 341 343 347 346 350 350 347 343 344 350 350 343 338 330 319 319 324 337 338 338 339 340 340 339 337 336 338 342 343 344 345 348 349 352 354 353 351 350 349 352 351 348 347 344 342 343 343 343 342 341 347 350 338 337 340 342 341 343 341 344 343 347 346 344 344 346 339
Wind_Speed
2 2 2 3 2 3 3 3 3 4 3 3 3 4 4 5 5 5 4 4 4 5 6 7 5 4 5 6 7 5 5 4 4 4 4 4 5 6 11 11 10 11 11 10 10 10 9 9 10 9 9 9 10 9 8 8 7 7 7 8 8 8 8 9 10 10 10 10 10 10 10 10 11 11 12 12 13 13 13 13 13 14 14 12 13
3 3 3 3 3 3 3 4 4 4 2 4 4 3 4 3 4 5 5 5 3 4 4 6 3 3 2 6 7 7 5 5 5 5 4 4 4 5 11 12 12 11 11 11 10 10 10 10 10 11 11 11 11 10 9 9 8 8 8 8 8 8 9 9 9 10 10 10 10 10 11 11 11 11 12 12 13 13 13 13 13 13 12 11 11
3 3 3 2 2 3 3 2 3 4 3 5 4 4 4 5 4 4 5 4 5 5 3 3 4 2 3 5 5 5 5 4 4 4 4 5 5 5 6 13 13 13 12 12 11 11 11 11 12 12 12 11 11 10 10 9 9 9 8 8 8 9 9 9 10 11 11 11 11 11 11 11 11 11 11 11 11 13 12 11 10 10 9 8 7
3 2 2 2 2 1 1 2 4 4 4 4 4 4 4 4 4 3 3 3 4 5 3 4 4 5 3 4 4 4 5 5 5 5 4 4 5 5 5 6 12 13 12 13 12 12 12 12 12 12 12 11 11 11 10 10 9 9 9 9 9 9 10 10 9 10 11 11 10 9 10 10 9 9 9 10 10 11 10 8 7 7 7 6 6
3 2 2 2 1 0 2 2 4 3 3 4 5 3 2 3 3 2 2 2 3 4 3 5 5 6 4 3 5 4 5 5 5 4 4 4 4 4 5 5 4 9 12 12 13 13 13 13 12 12 11 11 11 11 11 10 10 9 9 9 10 10 10 10 9 9 9 8 8 9 8 8 8 8 9 9 9 6 6 6 5 5 6 7 7
3 2 2 2 1 1 3 3 3 3 3 3 2 2 4 3 3 1 3 4 5 5 1 4 5 5 5 3 4 5 5 5 5 5 4 5 4 4 5 5 5 5 5 11 13 12 13 13 12 12 11 11 11 11 11 10 10 9 9 9 9 9 10 10 9 8 7 7 7 7 7 7 7 8 8 7 4 5 5 4 5 6 6 7 7
3 3 2 2 2 3 3 4 4 3 3 1 3 4 2 3 1 3 3 3 3 3 2 5 2 6 6 6 6 5 5 6 5 4 5 4 4 5 5 4 4 4 5 5 7 12 12 12 12 12 11 11 11 10 10 10 10 9 9 8 8 8 8 8 8 7 7 6 7 6 6 6 6 7 6 4 5 4 3 3 5 6 7 7 7
3 2 3 3 3 4 4 3 3 1 2 2 3 4 4 3 2 2 4 4 4 5 3 3 2 4 5 4 5 6 6 6 6 5 5 4 5 5 5 5 5 5 5 5 5 6 11 11 12 11 11 11 10 10 10 10 9 8 8 8 7 7 7 7 7 7 6 6 6 6 6 6 5 5 4 5 3 3 3 4 4 5 6 6 7
3 3 3 3 4 4 4 3 1 3 2 1 2 3 2 3 4 2 2 3 3 3 4 4 3 2 2 3 2 6 8 7 7 6 5 5 5 5 5 5 5 6 5 5 5 5 7 11 11 11 11 10 9 8 9 9 9 8 7 7 7 7 7 7 7 6 6 5 5 5 6 5 5 5 5 4 4 3 4 4 4 5 6 6 6
4 4 4 3 2 3 4 0 2 2 2 3 2 2 3 1 3 3 3 2 4 5 5 4 3 3 1 1 1 3 6 7 8 6 6 6 5 5 7 6 5 6 6 5 6 5 5 7 9 9 10 10 8 8 7 7 8 8 8 8 8 7 7 7 6 6 6 5 5 5 5 5 5 5 5 5 5 4 5 4 4 5 5 6 6
4 3 3 3 3 3 2 0 2 2 2 2 2 3 3 2 3 4 3 3 3 4 4 4 4 3 2 1 0 3 4 3 3 6 6 7 7 7 5 6 6 5 6 6 5 5 5 5 5 5 6 9 9 8 7 7 7 7 8 9 9 8 8 7 6 6 6 6 6 5 5 5 5 6 6 5 5 5 5 5 4 5 6 5 6
4 3 2 1 2 2 1 1 1 1 1 0 1 2 2 4 4 3 4 4 3 3 2 2 1 1 1 1 3 3 3 1 1 3 4 4 6 5 6 5 5 6 6 6 5 5 5 5 5 5 4 6 8 8 8 7 7 8 8 10 10 9 8 8 8 7 6 7 7 6 6 5 6 6 7 6 5 5 6 5 5 5 6 5 6
2 2 1 1 2 2 2 2 1 1 1 0 1 2 1 1 2 1 2 4 4 4 5 5 4 2 3 2 4 3 3 3 3 2 3 5 4 5 6 5 6 6 7 5 5 5 5 5 5 4 5 5 5 7 8 8 8 9 9 10 11 10 9 9 8 8 8 8 8 7 6 6 6 7 7 8 7 6 6 6 5 5 5 5 5
1 1 0 4 3 2 3 2 0 0 0 1 2 1 2 3 3 3 1 1 2 3 3 1 2 2 2 0 3 5 3 2 3 4 4 4 5 6 7 6 6 7 5 4 5 5 5 5 4 4 5 5 5 4 5 6 7 10 10 11 12 11 10 10 10 9 9 9 9 7 7 7 7 7 8 9 8 7 7 6 6 5 5 5 6
1 1 1 3 3 3 3 3 2 0 1 2 2 2 2 2 2 2 4 2 3 3 1 1 2 1 2 2 1 1 3 4 4 5 6 3 5 6 6 6 7 6 6 5 5 5 5 4 4 4 5 5 5 5 5 5 6 8 10 10 11 12 12 11 11 11 10 10 9 8 8 7 8 8 9 9 9 8 7 7 6 6 5 5 6
2 2 1 2 3 3 2 2 2 1 1 0 2 2 2 2 2 2 1 4 4 3 0 0 2 5 0 0 1 1 2 2 3 6 2 2 8 7 6 6 7 5 3 5 6 6 6 4 4 5 5 5 5 5 5 5 7 9 10 11 11 12 12 12 12 12 11 11 10 10 9 8 8 8 9 10 10 10 8 8 7 7 6 6 6
3 2 1 2 2 2 2 2 2 1 1 0 0 1 2 2 0 2 2 1 5 2 3 5 2 1 4 2 1 1 1 4 1 4 4 2 1 4 3 3 3 4 4 7 5 5 6 4 4 4 5 5 4 5 5 5 5 5 7 10 12 12 11 11 12 13 12 12 11 11 10 9 9 9 10 10 11 11 10 9 8 7 6 6 7
3 2 2 3 3 3 3 3 2 1 1 1 0 0 1 0 1 0 1 1 0 3 4 3 1 0 1 1 4 1 1 1 2 1 4 1 1 3 1 1 2 3 5 6 6 6 4 4 3 4 5 4 5 5 5 5 5 5 5 7 11 12 12 13 13 12 13 12 13 12 12 10 10 10 10 11 12 12 11 10 9 8 7 7 7
3 3 3 3 3 3 3 3 3 2 1 1 0 0 0 1 0 0 0 0 1 3 3 4 5 3 4 3 0 1 3 1 1 0 2 4 4 2 2 3 2 4 5 3 3 4 3 2 3 5 4 4 4 5 5 6 6 6 8 10 11 11 12 14 14 13 12 13 14 13 13 12 11 11 11 11 12 12 12 11 10 10 8 8 8
3 3 4 3 3 3 2 3 3 2 1 2 2 0 1 2 0 0 1 2 2 3 2 3 4 4 4 4 4 3 3 3 2 1 2 1 4 4 2 2 2 1 3 3 2 3 2 3 4 5 5 4 5 4 5 5 5 5 6 11 12 12 12 13 14 14 13 12 14 14 14 13 13 11 11 11 12 12 12 12 11 10 9 9 9
3 4 3 3 3 3 3 3 3 3 1 1 1 1 0 1 1 2 3 2 2 0 1 3 4 3 4 4 4 5 4 3 2 2 1 1 1 1 3 5 3 2 3 4 1 1 3 5 7 5 4 5 4 4 5 5 6 5 7 11 12 12 12 13 14 13 14 14 12 14 14 14 13 12 11 11 11 12 12 12 11 11 12 10 9
3 4 4 3 3 2 2 3 2 2 2 3 1 0 1 1 1 0 0 3 1 2 2 2 2 2 1 0 4 4 5 3 2 3 1 2 0 2 2 2 4 5 2 2 1 3 3 5 4 4 6 5 3 5 5 5 6 5 7 11 11 11 12 12 13 13 13 14 14 14 13 13 14 13 12 11 11 12 11 11 11 11 11 11 10
4 4 5 3 3 3 3 2 2 2 2 2 1 0 1 2 2 0 2 3 3 4 3 3 3 4 3 4 3 1 1 1 2 2 2 1 2 2 2 1 1 3 5 4 5 5 4 3 4 5 5 2 3 6 6 6 5 6 10 11 11 11 11 12 12 11 13 14 14 14 14 14 14 13 13 12 12 11 11 10 10 10 10 10 9
3 4 4 4 3 3 3 2 3 2 2 2 2 1 1 1 0 1 2 2 2 3 3 4 4 5 4 3 3 1 1 1 2 1 2 0 1 2 3 4 2 1 3 6 3 7 6 4 3 3 4 4 6 6 5 5 6 9 7 10 11 11 11 11 11 10 12 14 14 14 14 14 14 13 12 13 12 11 10 9 9 9 10 9 8
4 4 4 5 4 3 3 3 2 3 3 2 2 1 1 1 0 2 1 2 3 3 3 3 3 3 5 3 0 1 2 1 1 1 1 3 2 2 1 1 0 2 3 3 3 4 2 6 5 5 3 6 5 4 5 5 5 7 9 7 11 9 10 11 11 11 12 14 14 14 14 14 14 13 13 14 14 12 10 7 8 9 9 9 8
5 5 5 4 4 4 4 3 3 3 3 3 3 2 2 2 0 0 1 2 2 3 3 4 3 3 2 5 4 3 3 2 1 1 1 2 2 1 1 2 0 1 2 3 3 4 4 6 6 5 4 4 4 4 5 5 5 8 10 6 7 8 9 11 12 12 12 13 14 15 14 14 14 14 13 14 14 13 11 9 7 8 9 9 8
6 5 5 4 4 4 3 3 3 4 3 3 3 2 2 1 0 0 1 1 2 2 3 3 4 5 4 4 4 3 3 3 1 2 2 3 2 2 2 2 4 4 3 2 3 1 1 4 3 4 4 4 6 6 7 6 6 9 9 4 4 9 10 11 11 11 11 12 13 15 15 14 15 15 15 15 16 15 12 12 8 7 8 8 7
5 4 5 5 5 5 4 3 3 4 4 4 3 3 2 2 1 1 2 1 2 2 2 2 3 3 4 4 4 5 4 4 3 4 3 1 1 3 3 3 1 3 3 3 3 2 1 3 3 2 4 6 6 5 6 7 6 9 7 5 5 5 9 11 13 13 13 12 12 13 14 13 14 15 16 15 16 16 13 11 9 7 7 8 7
5 5 4 5 5 6 5 4 4 4 4 4 4 3 3 3 3 2 2 2 0 1 1 3 3 2 3 3 3 3 3 3 3 4 2 1 1 3 4 2 5 1 1 2 2 1 3 1 2 3 3 5 6 5 5 4 6 7 4 5 5 5 8 12 13 12 12 12 12 11 11 11 11 13 13 14 15 16 14 13 11 7 5 7 8
5 5 5 5 5 6 5 4 4 3 4 3 3 3 3 3 3 3 3 2 1 1 1 1 3 2 2 4 3 2 2 2 2 3 3 3 2 1 2 3 5 2 3 1 3 3 3 3 1 2 4 6 5 5 4 5 9 8 5 6 7 6 11 12 12 11 12 12 12 11 11 11 11 12 13 13 14 15 15 13 13 10 4 6 7
6 4 5 5 6 5 5 4 4 4 4 4 3 3 3 4 3 3 3 3 3 3 3 2 3 2 3 4 3 2 1 1 2 3 3 4 3 1 1 2 2 2 4 2 0 3 2 2 3 3 2 4 5 4 5 6 8 8 6 6 7 10 12 9 10 11 12 12 12 12 14 14 13 13 13 14 14 14 14 14 14 14 5 5 6
6 5 5 5 5 5 5 5 4 4 4 4 4 4 3 4 3 3 3 3 3 3 3 3 3 2 3 3 3 3 3 3 4 4 3 3 2 3 1 1 2 2 3 3 2 5 3 3 4 6 6 4 6 5 6 6 7 10 6 7 8 10 7 6 8 11 12 13 13 15 14 14 13 13 13 14 14 14 14 15 15 14 14 4 6
6 5 5 5 6 6 6 5 5 5 5 4 4 3 3 4 3 3 3 3 3 4 3 4 3 2 3 3 3 3 2 2 3 3 2 2 3 3 2 1 1 2 3 2 2 4 4 2 3 4 4 3 4 3 6 7 8 8 8 6 6 6 7 6 6 10 12 12 12 13 13 14 15 15 14 13 14 14 14 14 15 15 15 13 5
6 6 6 6 6 6 5 5 5 5 5 5 5 4 4 4 4 3 4 3 3 4 3 3 4 3 3 3 3 4 4 3 3 4 3 3 3 3 3 2 3 3 3 2 3 2 4 4 4 4 4 1 3 4 4 7 8 7 9 9 7 5 6 5 6 6 12 13 13 13 13 14 15 15 14 14 14 14 15 14 15 14 15 15 12
5 6 7 7 7 6 5 5 5 5 5 5 5 5 5 5 5 4 4 4 4 3 3 4 4 3 3 3 4 4 3 3 4 4 4 4 2 2 3 3 4 4 3 3 2 2 4 4 2 3 2 2 2 5 6 5 5 4 6 7 7 7 5 4 5 5 10 13 13 13 14 14 14 14 14 14 14 15 15 15 14 14 14 14 14
7 6 7 7 7 7 6 6 6 5 5 5 5 5 6 6 6 5 4 3 3 4 4 4 4 4 5 4 5 5 3 4 5 5 4 4 3 2 3 3 3 4 3 3 4 4 2 2 3 2 3 3 4 4 5 5 5 6 4 5 4 4 5 6 6 5 8 12 12 13 13 13 13 14 15 16 15 15 15 15 14 14 14 14 13
7 6 6 5 6 7 8 7 6 6 6 6 6 6 6 5 6 6 5 4 4 4 5 5 5 5 5 5 6 5 5 5 4 4 5 4 3 3 3 2 3 3 2 2 1 1 1 3 3 3 2 2 3 5 3 4 7 5 4 4 4 4 5 5 5 6 8 11 11 12 12 11 14 15 16 15 16 16 15 15 14 14 14 14 12
6 6 7 6 6 7 7 7 7 7 7 7 7 7 6 6 6 6 5 5 5 5 5 5 6 5 5 5 5 5 4 4 5 4 3 4 4 3 4 4 4 3 3 2 1 3 2 2 2 4 3 3 4 3 4 3 5 5 5 5 4 4 4 6 5 5 6 5 6 8 9 11 13 16 15 15 16 15 14 13 13 14 15 15 13
7 7 6 6 6 7 7 7 6 7 7 7 7 6 6 5 5 5 6 5 4 3 4 5 6 5 5 5 6 5 5 6 6 6 5 4 4 5 5 5 3 2 2 2 1 0 0 2 3 3 3 3 1 4 5 4 2 2 3 6 6 3 2 4 6 5 4 5 4 7 10 10 12 11 13 14 15 14 13 11 14 17 17 17 16
8 7 8 7 6 6 7 7 7 6 6 6 6 6 5 5 5 5 6 5 3 3 5 6 5 6 6 5 6 5 5 6 6 7 5 6 4 5 6 3 2 3 3 1 0 0 1 2 2 4 2 3 6 3 3 4 4 3 1 1 6 8 7 2 2 6 6 6 6 8 8 9 10 12 13 13 14 15 12 11 14 15 17 17 17
8 8 7 7 6 6 6 6 6 6 6 5 5 5 6 6 5 6 5 5 5 5 5 5 5 5 4 5 5 5 6 10 12 11 8 7 6 7 5 3 4 3 3 1 1 1 2 2 5 3 3 5 5 5 6 4 5 5 4 2 3 5 6 7 4 3 3 5 6 6 7 7 7 8 7 7 8 10 8 9 10 14 15 15 16
8 8 7 7 7 7 7 6 5 5 4 4 3 7 6 5 6 5 4 5 4 4 4 5 5 4 5 4 3 7 6 4 4 2 5 9 11 8 4 4 4 4 3 3 3 2 2 4 5 4 5 6 6 4 3 3 4 3 4 4 6 6 6 6 3 1 3 2 6 7 7 6 6 7 6 7 6 7 6 6 7 9 11 14 16
4 5 7 8 7 7 7 7 6 2 2 2 5 3 1 3 3 4 5 5 4 4 4 4 4 2 2 2 2 5 7 7 6 9 7 8 6 1 2 5 6 4 3 3 4 3 2 3 3 3 3 5 6 4 4 5 3 2 3 4 5 5 5 7 10 5 1 4 4 5 7 6 4 6 7 6 7 8 7 7 11 13 13 13 15
3 3 3 5 5 6 4 4 4 4 3 2 3 3 3 1 2 2 3 3 4 4 4 3 3 3 1 3 3 4 5 5 4 5 6 8 8 7 5 3 4 5 4 3 3 2 2 3 3 3 3 5 5 4 5 3 4 4 3 4 3 4 5 5 5 6 6 4 5 5 7 5 4 5 7 7 7 7 8 11 14 14 13 14 16
4 5 5 4 4 4 6 6 5 4 3 1 1 2 2 2 0 3 3 3 4 4 4 4 4 3 3 4 4 4 3 7 5 4 4 4 6 8 7 3 1 4 5 5 3 2 1 2 2 3 3 3 3 3 2 3 2 2 3 4 4 4 4 5 5 5 7 4 4 3 5 6 4 6 7 7 7 7 8 10 14 14 14 15 16
4 5 4 4 3 4 6 7 5 4 2 3 4 2 1 1 1 2 3 3 3 3 4 4 4 4 4 5 4 3 2 3 3 4 3 3 4 4 4 4 4 5 5 2 2 1 0 1 1 2 3 2 4 3 4 1 1 3 4 5 4 5 5 5 5 6 7 4 2 3 4 5 4 6 6 7 7 7 6 9 13 13 14 15 15
5 5 5 5 3 4 4 5 5 4 2 4 3 3 4 3 2 2 2 2 3 3 4 4 4 5 4 5 5 4 2 2 3 4 3 3 3 3 3 3 3 3 3 4 5 4 3 1 1 3 5 4 5 5 5 3 2 4 4 5 5 4 6 5 5 5 5 1 1 2 3 6 4 5 6 7 7 7 6 7 12 14 15 15 14
2 3 2 3 4 5 5 6 6 5 2 4 4 5 5 5 2 1 2 3 3 4 4 3 4 4 5 6 5 4 2 2 4 7 5 3 1 2 2 2 2 2 3 3 3 4 2 0 1 3 4 5 6 6 5 4 4 3 4 4 4 3 4 4 5 6 4 4 2 1 2 5 3 4 6 6 6 7 7 5 9 15 16 15 14
3 4 4 3 4 5 5 4 6 5 2 2 4 5 5 7 3 3 2 3 4 4 4 4 4 5 5 5 5 4 3 1 3 5 7 6 0 1 0 0 1 1 3 3 5 6 7 7 7 7 8 9 9 9 7 6 4 2 2 4 4 4 4 6 5 5 6 7 2 2 2 5 5 4 6 6 6 6 5 5 7 12 15 15 14
1 2 3 4 4 3 4 4 3 5 2 2 4 5 5 5 3 2 1 2 3 4 4 3 4 4 5 10 6 4 3 2 3 3 6 3 1 2 1 1 1 1 3 4 4 5 6 7 6 7 8 8 7 7 5 3 2 1 2 5 4 3 5 4 6 5 6 5 3 4 6 4 6 3 4 5 5 3 3 4 7 9 12 11 14
3 3 4 5 6 4 4 5 7 6 3 2 3 4 5 3 2 2 2 2 3 3 5 5 4 4 4 5 7 4 4 3 3 3 5 4 2 2 1 0 1 2 2 2 3 4 5 6 6 7 7 8 6 6 7 11 8 3 3 4 5 4 5 5 5 5 5 1 3 6 7 6 7 4 2 6 3 3 1 6 7 7 7 7 9
Wind_Direction
183 189 181 208 237 229 215 228 227 242 227 239 224 231 229 232 244 254 257 247 226 243 243 251 244 231 183 159 160 169 178 167 172 173 178 178 196 209 201 205 207 212 217 223 222 224 227 232 238 239 242 245 249 256 258 263 265 268 273 276 282 287 289 289 291 291 293 294 294 294 293 292 291 291 292 292 294 295 297 294 288 287 300 313 306
186 193 191 236 247 226 210 231 230 248 251 259 247 242 245 228 234 250 260 266 259 244 226 238 214 223 163 159 166 176 172 165 175 183 179 180 197 214 209 209 211 217 220 226 229 230 233 234 240 241 244 249 251 252 259 263 264 269 273 276 279 284 287 290 292 290 289 289 286 287 287 287 286 287 292 297 301 303 300 299 301 306 311 309 311
186 198 213 252 236 210 229 241 258 259 252 255 263 254 257 252 237 223 217 230 263 283 273 272 266 254 201 156 178 159 158 171 178 181 182 186 194 209 224 214 216 219 223 227 231 235 238 240 242 244 246 249 252 257 260 263 266 270 275 279 283 286 288 287 286 286 290 289 288 285 283 283 290 294 297 302 301 302 308 316 322 323 331 336 337
190 195 190 193 170 158 229 216 235 249 240 256 274 276 267 270 276 275 300 307 302 302 271 231 257 250 233 178 145 163 163 174 186 188 188 191 200 206 217 225 221 222 226 229 232 235 239 243 246 250 252 254 256 259 261 265 269 275 280 285 289 290 289 289 284 289 290 294 297 296 296 299 304 306 305 302 302 310 330 335 337 344 341 334 327
182 177 169 177 145 256 278 262 251 260 267 256 269 275 290 297 299 315 275 209 204 203 261 271 231 239 222 207 143 175 171 172 192 185 193 195 211 217 215 222 229 229 229 232 236 237 241 244 248 252 255 258 261 263 264 267 272 275 281 285 290 291 293 293 295 299 302 308 306 303 304 306 307 304 301 301 312 328 325 334 345 337 327 319 319
165 175 170 155 191 273 268 271 270 261 270 246 251 324 334 338 288 332 346 14 348 325 288 235 229 219 222 191 168 172 166 185 190 193 194 197 203 213 221 225 224 226 231 234 236 240 243 246 249 253 256 259 261 263 266 268 272 276 279 284 286 288 291 295 298 300 303 305 304 301 301 302 299 299 300 315 326 322 327 336 330 327 319 317 321
179 169 171 170 211 243 260 258 271 265 260 321 1 335 333 326 304 20 358 357 353 330 307 265 236 199 211 188 184 161 172 193 190 194 201 204 193 213 216 224 227 227 229 231 240 240 242 247 251 254 255 257 258 261 263 264 268 272 276 277 278 281 284 288 290 291 296 297 296 297 296 295 300 307 320 319 314 320 320 318 325 318 313 312 313
181 169 175 198 208 232 249 260 245 271 23 2 344 330 315 317 296 54 11 339 352 327 332 344 320 223 220 140 156 151 173 190 203 200 209 194 209 212 215 220 226 232 227 224 231 242 242 244 247 252 254 254 254 258 264 269 272 274 274 270 269 270 273 276 278 284 288 292 294 297 300 305 311 307 299 298 306 306 300 309 305 302 303 305 311
185 187 187 197 214 235 259 234 205 79 64 342 336 328 337 331 329 6 78 311 325 309 334 5 316 265 200 128 142 153 164 189 202 199 188 204 211 219 219 222 224 229 231 226 230 237 244 242 243 247 252 254 255 255 259 267 273 272 266 263 260 260 263 268 274 279 281 283 288 293 298 301 300 293 292 296 290 281 286 292 292 297 297 302 308
191 196 194 198 218 251 260 221 72 104 66 8 336 340 5 17 356 355 24 342 334 339 319 326 324 283 285 113 277 148 176 199 197 180 185 206 211 218 220 216 214 226 229 225 224 231 241 251 249 251 257 261 261 257 254 257 263 267 261 257 255 254 260 264 264 267 270 271 275 286 289 287 288 289 287 280 283 275 280 279 284 285 288 295 304
191 182 183 209 214 227 259 93 87 67 52 16 356 359 337 357 27 331 330 338 293 279 265 286 292 292 246 263 333 270 219 190 184 173 195 206 207 215 219 228 212 223 232 230 228 226 234 243 247 243 251 257 256 254 243 247 253 257 257 253 248 250 256 256 253 255 261 266 272 277 277 279 279 280 277 275 273 272 270 274 279 280 284 294 300
168 176 153 192 191 213 190 116 104 88 91 36 347 349 344 1 348 345 336 314 242 230 228 202 244 217 260 284 281 284 255 250 116 177 192 218 221 219 221 225 214 224 226 229 228 230 230 236 237 238 244 256 252 247 245 244 246 247 251 252 248 247 253 253 252 253 254 266 272 276 274 271 275 275 273 268 264 260 265 269 267 275 281 288 299
156 135 29 184 154 159 136 95 112 107 88 171 249 283 301 340 316 314 324 348 325 342 2 72 95 52 1 355 315 318 331 348 304 253 205 210 231 229 230 219 224 220 230 224 224 230 227 234 234 231 233 245 258 246 240 241 242 242 246 250 249 246 248 251 252 253 257 259 268 268 268 271 270 272 271 267 261 254 258 261 258 267 276 282 288
163 93 179 135 149 123 124 169 176 101 179 336 303 324 14 7 355 351 0 345 293 299 335 70 36 141 142 311 343 324 313 314 271 259 232 208 200 213 218 214 218 224 235 232 234 233 233 228 234 229 222 231 239 238 243 244 248 248 248 251 250 247 245 248 250 254 256 261 263 266 263 263 269 270 270 270 266 259 257 256 256 254 264 274 279
186 176 138 127 143 130 154 185 181 223 26 5 0 327 348 348 3 27 336 315 266 272 284 167 142 116 117 83 328 3 325 349 314 286 265 191 197 211 216 214 223 222 223 230 243 242 236 224 224 228 228 224 230 230 230 238 239 247 251 254 257 255 250 248 252 255 258 261 264 264 264 263 263 268 271 271 269 266 261 257 254 252 250 257 270
194 223 126 126 141 159 155 157 202 177 153 53 10 349 341 336 2 13 41 347 356 315 333 86 119 118 65 175 229 119 342 303 291 286 285 231 197 206 205 217 219 233 206 230 230 228 236 231 222 223 229 219 223 225 226 236 243 245 248 250 256 260 262 256 256 258 261 264 266 264 261 258 258 260 265 268 271 269 265 261 257 253 243 246 261
195 204 168 150 151 152 150 166 145 175 127 125 43 305 290 267 337 358 29 21 346 343 316 358 13 164 138 93 19 18 240 244 3 293 333 354 266 229 201 243 237 229 213 233 236 240 224 208 228 231 228 213 221 225 229 240 245 246 248 252 252 255 258 258 257 261 265 269 270 269 265 261 258 259 259 263 268 271 270 265 262 256 242 239 246
194 207 178 160 167 170 167 152 166 208 146 138 257 7 333 58 300 250 20 354 286 1 348 329 353 91 121 163 166 172 232 279 85 269 315 235 337 80 62 193 174 221 241 227 229 237 239 212 203 228 220 205 215 223 230 238 239 241 246 250 251 252 255 257 256 258 264 268 273 274 273 268 263 259 258 262 265 268 270 269 265 260 250 243 243
200 192 183 180 177 178 175 183 190 199 151 143 40 292 285 264 70 131 306 353 79 35 14 314 333 6 17 9 17 159 163 86 314 143 12 322 6 350 348 340 220 176 240 272 296 257 248 193 205 233 231 214 211 224 232 241 242 240 240 246 251 252 255 257 257 257 261 266 272 275 277 276 272 266 264 265 265 266 268 268 264 263 258 242 243
189 188 189 186 181 189 177 186 191 203 190 180 212 235 285 286 294 163 120 81 70 58 0 352 52 310 356 1 1 22 59 94 146 134 159 76 327 320 267 328 47 127 209 229 236 249 229 218 217 237 237 230 224 227 234 239 243 247 250 251 253 256 258 260 260 259 260 263 270 274 278 280 279 274 270 267 267 265 265 265 264 261 256 253 246
192 182 195 189 190 177 176 160 156 180 165 201 232 227 310 326 346 357 25 351 49 79 78 15 32 5 350 350 356 17 353 37 47 70 104 99 302 327 311 325 1 338 345 335 336 269 232 217 212 219 230 234 227 231 240 239 241 239 248 254 257 258 259 262 265 263 262 264 267 273 278 282 282 282 279 274 270 267 264 264 263 258 262 255 246
198 184 183 200 195 179 181 177 160 171 160 188 199 14 10 318 260 53 215 17 19 33 39 45 45 32 85 292 26 345 7 358 7 39 18 82 172 304 279 356 1 299 333 355 283 294 280 227 225 220 233 241 249 247 242 244 241 244 250 256 259 260 262 265 268 267 264 266 269 271 275 278 281 284 283 279 273 270 268 265 267 265 264 267 262
178 187 183 191 198 201 189 200 169 196 160 141 189 179 273 252 286 350 359 350 8 356 7 17 26 16 19 40 23 69 236 257 287 36 88 342 17 330 316 254 242 319 321 329 351 354 334 279 228 236 243 265 261 255 253 251 257 255 261 271 272 268 269 271 273 271 267 268 270 270 272 275 278 282 284 282 277 273 272 270 267 267 265 263 257
179 171 193 196 192 208 212 187 176 176 197 177 223 174 44 75 75 74 352 357 6 11 25 5 4 3 352 358 3 311 123 176 264 122 89 268 113 320 333 331 354 299 283 332 5 7 1 6 334 307 325 306 260 253 260 261 266 276 290 282 278 281 283 283 285 282 275 273 272 271 270 271 274 278 281 282 279 277 277 275 271 269 271 270 264
198 188 197 201 192 202 217 198 199 205 183 171 220 156 101 111 92 46 42 357 343 4 10 336 1 356 316 326 352 330 13 238 183 145 92 113 119 60 291 68 282 308 304 10 338 320 335 351 340 304 220 220 253 285 294 308 303 290 279 281 291 301 298 293 289 285 280 277 276 273 270 267 270 273 278 281 282 282 282 270 259 263 264 268 273
192 201 203 197 199 207 200 205 207 198 186 181 201 169 156 157 106 87 357 299 337 332 344 345 343 329 9 345 334 350 329 335 290 135 181 116 72 77 296 333 42 312 308 351 315 12 324 341 343 353 8 343 308 317 312 289 288 290 294 298 304 302 291 285 285 286 282 279 278 278 276 273 273 275 278 282 285 287 286 280 268 267 271 274 271
196 203 210 196 207 210 203 200 200 199 184 177 198 189 159 135 114 114 288 292 308 326 348 356 346 355 353 343 322 333 335 337 40 290 249 140 143 158 131 340 337 7 348 314 330 333 279 293 332 0 9 357 345 345 325 324 314 306 311 319 307 296 291 290 295 301 300 293 288 288 288 283 279 280 282 284 287 289 290 290 280 273 277 276 271
206 201 208 195 203 208 204 189 189 187 180 177 187 187 180 166 208 215 288 282 295 339 329 357 351 353 346 329 348 335 347 340 340 315 345 36 55 108 109 117 110 336 333 337 343 308 285 2 314 300 349 352 341 331 322 330 327 326 333 328 309 299 297 306 319 322 321 313 304 298 297 293 286 285 287 286 287 288 287 286 284 273 270 278 275
202 204 202 201 201 201 196 185 187 186 176 182 182 187 189 194 191 214 243 284 13 291 312 349 317 331 336 330 316 317 317 357 357 5 21 47 154 188 168 151 158 130 289 331 284 268 303 350 4 294 329 332 328 328 327 319 312 318 319 319 314 304 306 318 319 322 322 322 321 317 313 307 298 295 294 293 291 290 289 289 288 282 261 270 278
200 207 187 194 199 198 190 190 187 187 181 192 187 195 189 213 205 203 227 206 223 299 283 313 302 310 322 322 337 320 327 357 344 343 45 21 37 254 209 147 145 154 174 205 274 229 264 304 230 282 313 317 319 324 325 314 318 330 329 335 332 319 314 313 311 319 326 328 325 324 325 324 319 311 306 303 299 297 296 295 294 296 237 247 258
201 203 174 185 186 190 191 186 186 195 191 195 204 203 193 205 206 210 220 200 201 244 272 290 280 304 313 309 296 308 311 336 354 348 0 20 348 272 139 146 188 141 163 154 228 285 186 265 287 261 269 295 307 316 320 324 316 326 329 329 321 315 314 307 313 319 328 329 325 337 348 342 328 317 312 311 309 308 306 303 302 304 292 220 238
199 192 177 176 178 183 193 189 188 198 196 206 205 206 201 212 208 208 237 212 222 239 263 262 266 295 301 298 295 301 302 348 336 337 350 1 300 247 187 162 190 171 146 152 186 260 255 226 266 291 288 282 307 313 317 318 319 324 326 317 310 314 310 304 313 323 331 332 332 342 344 335 328 320 317 318 318 315 310 308 307 306 305 281 226
189 187 188 181 180 183 185 191 191 198 200 206 211 199 200 216 222 214 238 224 240 254 242 267 275 285 284 286 289 286 285 322 303 304 332 306 306 293 294 185 180 159 149 156 204 269 301 261 257 265 302 345 316 328 331 320 323 322 323 310 308 311 308 309 324 325 330 328 327 335 338 335 332 331 329 324 319 314 312 310 309 306 305 306 271
186 188 188 189 188 186 189 190 194 197 200 202 200 193 205 215 225 220 228 228 235 249 241 251 278 282 270 274 288 280 268 259 277 296 283 290 280 299 307 257 267 247 197 165 208 214 270 317 310 308 302 320 304 301 314 314 312 322 321 319 320 319 313 330 336 330 333 325 327 333 335 332 331 331 332 328 321 316 314 312 308 306 305 304 305
197 188 187 189 187 189 194 193 190 194 202 207 200 191 204 205 215 227 226 217 217 230 236 249 259 268 281 266 266 269 277 275 267 267 271 263 247 241 264 247 251 257 234 191 157 234 265 275 259 303 289 316 291 295 309 297 291 291 304 314 325 323 333 337 342 347 326 323 327 332 332 333 334 333 330 325 320 317 316 314 310 307 305 304 304
198 200 191 189 185 188 194 199 201 205 202 208 205 200 200 203 211 220 231 224 221 225 231 236 247 252 251 264 271 272 273 274 268 263 254 242 236 221 248 258 228 254 240 174 187 198 214 283 301 285 279 320 297 290 289 303 309 322 314 301 320 342 349 357 352 331 320 319 326 329 330 332 331 327 325 324 323 322 319 316 313 310 308 305 306
197 194 198 187 184 189 197 198 202 205 207 204 203 204 205 203 206 216 220 215 214 218 223 229 234 237 245 239 252 255 255 247 263 249 250 260 256 240 251 250 229 239 247 206 213 153 174 261 284 276 283 280 258 290 311 344 327 328 329 338 331 334 342 338 334 327 320 325 329 330 329 331 325 324 324 324 325 323 322 321 321 320 317 315 313
194 191 193 196 192 199 201 199 198 201 203 201 199 200 201 200 206 213 219 216 217 217 225 226 232 225 227 236 237 237 239 234 253 257 256 250 248 238 240 250 241 235 239 248 161 170 187 224 221 294 323 298 327 301 299 4 333 319 324 319 330 343 346 337 333 326 326 328 335 335 334 333 326 323 323 326 323 323 326 333 340 344 343 337 329
200 199 197 193 200 198 205 201 199 195 191 191 191 197 200 200 205 211 223 226 228 245 242 233 237 238 239 241 244 235 241 245 250 251 244 246 250 254 246 248 232 182 196 220 139 120 49 308 290 235 267 286 253 295 312 337 315 239 297 329 327 306 320 324 324 319 310 316 319 319 325 320 317 319 321 323 328 334 343 355 5 357 352 350 347
203 203 203 199 196 197 201 200 202 196 193 192 195 200 202 203 204 213 217 219 192 206 249 251 244 242 244 250 256 254 245 252 249 255 233 243 239 248 251 236 196 175 191 168 124 145 265 276 250 295 305 296 321 285 295 345 2 339 306 297 310 325 329 321 289 316 314 324 336 338 333 332 333 330 332 336 336 339 355 8 6 358 353 350 351
201 198 197 191 181 195 200 192 188 190 192 203 199 196 204 212 201 201 204 201 188 210 233 251 249 245 251 249 251 254 249 246 246 243 232 225 226 238 244 194 201 201 200 172 184 282 286 290 300 296 307 312 295 311 324 331 331 301 292 357 296 306 311 323 310 262 261 318 326 332 327 329 329 329 330 331 333 338 347 358 359 359 350 348 351
197 194 190 183 178 180 186 196 199 196 195 198 200 203 203 206 209 210 200 195 207 221 231 243 258 244 238 249 260 267 285 322 54 13 261 249 235 225 227 201 220 214 209 222 247 238 258 286 279 290 309 299 293 299 292 280 286 297 326 337 330 313 319 310 286 251 287 350 331 331 323 321 334 323 333 332 329 342 332 348 348 350 348 348 350
213 200 186 186 186 182 182 188 197 150 70 34 1 346 299 275 238 214 213 213 205 212 214 224 230 273 301 325 344 64 54 25 13 17 17 40 43 47 222 205 199 192 202 226 247 217 213 241 260 290 278 286 291 292 287 289 288 308 304 322 315 330 343 339 329 322 258 358 331 323 316 320 340 332 327 326 331 336 333 339 340 349 351 349 348
163 160 194 204 197 189 158 126 121 124 125 45 6 22 20 354 255 223 214 220 217 213 222 198 193 190 150 73 67 68 49 41 25 11 5 13 16 10 347 293 246 235 228 206 223 217 200 237 277 268 265 272 283 301 298 312 316 325 330 328 314 322 319 314 298 306 302 350 332 325 307 308 338 333 327 326 330 327 330 328 340 346 350 350 351
140 146 167 165 178 165 146 145 138 132 139 58 67 79 77 96 212 225 216 220 222 220 181 175 162 135 111 100 83 52 33 30 32 10 13 359 359 11 27 32 276 230 230 244 235 229 173 198 223 277 256 267 290 283 280 305 328 325 322 318 302 290 283 284 283 293 302 333 334 321 313 308 343 335 325 323 326 326 327 336 339 344 347 352 353
112 124 128 133 140 154 155 147 134 111 96 17 355 7 65 107 182 181 203 192 157 140 163 164 137 135 128 122 106 70 30 29 23 18 5 6 356 7 9 9 8 2 5 355 216 201 170 212 199 232 266 230 266 261 284 249 325 294 292 288 286 291 288 276 284 288 288 318 304 311 297 309 342 336 325 318 325 324 327 331 336 343 348 353 357
139 143 140 127 117 107 101 108 117 105 71 9 357 6 2 356 310 197 166 156 136 132 134 134 135 130 123 107 104 114 93 46 31 11 21 351 3 16 17 10 16 41 58 62 61 66 65 111 185 228 261 269 262 273 273 257 241 246 251 266 286 293 289 291 290 273 285 274 48 9 300 311 333 337 319 319 326 323 325 331 336 342 348 353 356
89 104 106 125 132 123 120 120 116 106 58 17 9 11 9 358 355 93 105 119 115 114 112 105 99 95 101 109 114 113 112 68 19 357 350 320 10 38 23 359 14 46 70 79 52 38 49 264 261 279 279 283 283 280 288 289 278 264 291 297 298 295 313 322 332 326 321 328 359 42 309 308 324 336 312 316 324 321 326 334 337 342 346 351 357
159 151 151 147 143 137 131 124 117 109 88 28 23 27 25 6 23 45 61 97 117 126 126 122 110 104 101 115 123 132 121 89 16 358 347 342 18 56 0 343 325 7 54 21 8 2 350 335 316 300 289 288 293 295 295 249 234 302 309 345 340 349 345 337 331 337 331 329 323 46 339 304 326 327 309 313 323 307 313 330 344 344 343 348 354
148 104 106 92 86 102 112 109 117 111 96 19 21 38 43 36 49 63 43 104 125 135 127 111 105 102 129 125 125 121 122 107 17 359 1 3 24 4 14 345 326 13 36 357 346 343 338 331 323 317 307 308 315 339 11 1 296 268 332 354 325 333 317 321 318 318 314 312 318 3 344 311 313 311 302 299 308 280 307 344 351 343 345 349 352
127 128 117 106 99 93 109 120 121 114 115 80 48 49 54 51 88 95 80 87 107 129 138 121 93 88 71 84 98 107 121 117 70 48 30 39 63 40 351 29 61 85 35 337 332 342 347 350 352 355 359 1 15 28 22 16 29 13 350 340 337 335 321 318 314 308 303 349 6 10 346 318 328 315 13 323 304 292 350 7 347 342 343 350 346